This is the latest recevied weather packets stored in our database for station/object YO3FVR-13. If no packets are shown the sender has not sent any weather packets the latest 10 day(s).
| Time | Temp. | Humidity | Pressure | Rain* | Wind** | Luminosity | Snow |
|---|---|---|---|---|---|---|---|
| 1778271173 | 13.89° C | 99% | 1012.5 hPa | 0 mm | - | - | - |
| 1778270243 | 13.89° C | 99% | 1012.7 hPa | 0 mm | - | - | - |
| 1778269313 | 13.89° C | 99% | 1012.7 hPa | 0 mm | - | - | - |
| 1778268383 | 14.44° C | 99% | 1012.9 hPa | 0 mm | - | - | - |
| 1778267453 | 14.44° C | 99% | 1012.4 hPa | 0 mm | - | - | - |
| 1778266553 | 14.44° C | 99% | 1012.7 hPa | 0 mm | - | - | - |
| 1778265623 | 14.44° C | 99% | 1012.4 hPa | 0 mm | - | - | - |
| 1778264723 | 13.89° C | 99% | 1012.5 hPa | 0 mm | - | - | - |
| 1778263823 | 13.89° C | 99% | 1012.3 hPa | 0 mm | - | - | - |
| 1778262923 | 14.44° C | 99% | 1012.2 hPa | 0 mm | - | - | - |
| 1778262023 | 14.44° C | 99% | 1012 hPa | 0 mm | - | - | - |
| 1778261123 | 14.44° C | 99% | 1011.8 hPa | 0 mm | - | - | - |
| 1778260223 | 14.44° C | 99% | 1011.6 hPa | 0 mm | - | - | - |
| 1778259293 | 15° C | 99% | 1011.7 hPa | 0 mm | - | - | - |
| 1778258393 | 15° C | 99% | 1011.6 hPa | 0 mm | - | - | - |
| 1778257463 | 15° C | 99% | 1011.4 hPa | 0 mm | - | - | - |
| 1778256563 | 15.56° C | 99% | 1011.7 hPa | 0 mm | - | - | - |
| 1778255633 | 15.56° C | 99% | 1011.3 hPa | 0 mm | - | - | - |
| 1778254703 | 15.56° C | 99% | 1011.6 hPa | 0 mm | - | - | - |
| 1778253773 | 15° C | 99% | 1011.8 hPa | 0 mm | - | - | - |
| 1778252843 | 15° C | 99% | 1012.1 hPa | 0 mm | - | - | - |
| 1778251912 | 15° C | 99% | 1012.3 hPa | 0 mm | - | - | - |
| 1778251013 | 15.56° C | 99% | 1012.4 hPa | 0 mm | - | - | - |
| 1778250083 | 14.44° C | 99% | 1012.3 hPa | 0.25 mm | - | - | - |
| 1778249152 | 14.44° C | 97% | 1012.3 hPa | 0.25 mm | - | - | - |
* Rain latest hour (hover to see other rain measurements)
** Current wind speed in m/s (hover to see current wind gust speed)